This is the latest recevied weather packets stored in our database for station/object KC1DMA. If no packets are shown the sender has not sent any weather packets the latest 10 day(s).
| Time | Temp. | Humidity | Pressure | Rain* | Wind** | Luminosity | Snow |
|---|---|---|---|---|---|---|---|
| 1777996730 | 21.67° C | 57% | 1012.2 hPa | - | - | 814 W/m² | - |
| 1777996425 | 21.67° C | 58% | 1012.1 hPa | - | - | 810 W/m² | - |
| 1777996122 | 21.67° C | 55% | 1012.3 hPa | - | - | 807 W/m² | - |
| 1777995818 | 22.22° C | 56% | 1012.6 hPa | - | - | 802 W/m² | - |
| 1777995514 | 21.67° C | 58% | 1012.6 hPa | - | - | 787 W/m² | - |
| 1777995211 | 21.67° C | 58% | 1012.6 hPa | - | - | 787 W/m² | - |
| 1777994908 | 21.11° C | 57% | 1012.8 hPa | - | - | 776 W/m² | - |
| 1777994605 | 21.67° C | 57% | 1012.8 hPa | - | - | 774 W/m² | - |
| 1777994300 | 21.11° C | 58% | 1012.9 hPa | - | - | 763 W/m² | - |
| 1777993997 | 20.56° C | 59% | 1013 hPa | - | - | 758 W/m² | - |
| 1777993694 | 20° C | 59% | 1013.1 hPa | - | - | 751 W/m² | - |
| 1777993391 | 20° C | 61% | 1013.1 hPa | - | - | 731 W/m² | - |
| 1777993091 | 20° C | 61% | 1013.2 hPa | - | - | 733 W/m² | - |
| 1777992790 | 20° C | 61% | 1012.8 hPa | - | - | 722 W/m² | - |
| 1777992487 | 20° C | 61% | 1012.7 hPa | - | - | 713 W/m² | - |
| 1777992185 | 20° C | 60% | 1012.6 hPa | - | - | 707 W/m² | - |
| 1777991881 | 20° C | 62% | 1012.6 hPa | - | - | 693 W/m² | - |
| 1777991579 | 19.44° C | 63% | 1012.6 hPa | - | - | 680 W/m² | - |
| 1777991276 | 18.89° C | 66% | 1012.6 hPa | - | - | 669 W/m² | - |
| 1777990973 | 18.89° C | 65% | 1012.7 hPa | - | - | 659 W/m² | - |
| 1777990671 | 18.89° C | 65% | 1012.6 hPa | - | - | 642 W/m² | - |
| 1777990368 | 19.44° C | 65% | 1012.7 hPa | - | - | 636 W/m² | - |
| 1777990064 | 18.89° C | 66% | 1012.7 hPa | - | - | 623 W/m² | - |
| 1777989761 | 17.78° C | 70% | 1012.6 hPa | - | - | 607 W/m² | - |
| 1777989457 | 17.78° C | 70% | 1012.7 hPa | - | - | 516 W/m² | - |
* Rain since midnight (hover to see other rain measurements)
** Current wind speed in m/s (hover to see current wind gust speed)